Time,TemperatureF,DewpointF,PressureIn,WindDirection,WindDirectionDegrees,WindSpeedMPH,WindSpeedGustMPH,Humidity,HourlyPrecipIn,Conditions,Clouds,dailyrainin,SoftwareType,DateUTC
2013-06-03 00:04:00,76.1,73.0,29.97,SW,220,1.0,5.0,91,0.00,,,0.00,weatherlink.com 1.10,2013-06-03 04:04:00,
2013-06-03 00:19:00,76.0,73.0,29.96,SW,223,1.0,5.0,91,0.00,,,0.00,weatherlink.com 1.10,2013-06-03 04:19:00,
2013-06-03 00:34:00,76.1,73.0,29.96,WSW,254,0.0,5.0,91,0.00,,,0.00,weatherlink.com 1.10,2013-06-03 04:34:00,
2013-06-03 00:49:00,76.1,73.0,29.96,SW,221,0.0,4.0,91,0.00,,,0.00,weatherlink.com 1.10,2013-06-03 04:49:00,
2013-06-03 01:04:00,76.0,74.0,29.96,West,265,0.0,5.0,92,0.00,,,0.00,weatherlink.com 1.10,2013-06-03 05:04:00,
2013-06-03 01:19:00,75.9,74.0,29.96,SW,223,0.0,6.0,92,0.00,,,0.00,weatherlink.com 1.10,2013-06-03 05:19:00,
2013-06-03 01:34:00,75.8,73.0,29.96,WNW,291,0.0,5.0,92,0.00,,,0.00,weatherlink.com 1.10,2013-06-03 05:34:00,
2013-06-03 01:49:00,75.9,74.0,29.96,SE,127,0.0,5.0,92,0.00,,,0.00,weatherlink.com 1.10,2013-06-03 05:49:00,
2013-06-03 02:05:00,75.8,73.0,29.95,WSW,254,1.0,4.0,92,0.00,,,0.00,weatherlink.com 1.10,2013-06-03 06:05:00,
2013-06-03 02:20:00,75.8,73.0,29.95,WSW,255,2.0,6.0,92,0.00,,,0.00,weatherlink.com 1.10,2013-06-03 06:20:00,
2013-06-03 02:35:00,75.8,73.0,29.94,WSW,237,4.0,6.0,92,0.00,,,0.00,weatherlink.com 1.10,2013-06-03 06:35:00,
2013-06-03 02:50:00,75.9,74.0,29.93,South,185,1.0,5.0,92,0.00,,,0.00,weatherlink.com 1.10,2013-06-03 06:50:00,
2013-06-03 03:05:00,76.0,74.0,29.93,WSW,249,2.0,5.0,92,0.00,,,0.00,weatherlink.com 1.10,2013-06-03 07:05:00,
2013-06-03 03:20:00,76.1,74.0,29.92,SSE,160,0.0,5.0,92,0.00,,,0.00,weatherlink.com 1.10,2013-06-03 07:20:00,
2013-06-03 03:35:00,76.1,74.0,29.92,South,189,2.0,4.0,93,0.00,,,0.00,weatherlink.com 1.10,2013-06-03 07:35:00,
2013-06-03 03:50:00,76.0,74.0,29.92,SSW,203,0.0,4.0,93,0.00,,,0.00,weatherlink.com 1.10,2013-06-03 07:50:00,
2013-06-03 04:05:00,75.9,74.0,29.91,WSW,241,0.0,4.0,93,0.00,,,0.00,weatherlink.com 1.10,2013-06-03 08:05:00,
2013-06-03 04:20:00,75.8,74.0,29.91,SE,139,1.0,5.0,93,0.00,,,0.00,weatherlink.com 1.10,2013-06-03 08:20:00,
2013-06-03 04:35:00,75.7,74.0,29.91,SSE,164,0.0,4.0,93,0.00,,,0.00,weatherlink.com 1.10,2013-06-03 08:35:00,
2013-06-03 04:50:00,75.7,74.0,29.90,SSE,168,1.0,3.0,93,0.00,,,0.00,weatherlink.com 1.10,2013-06-03 08:50:00,
2013-06-03 05:05:00,75.6,74.0,29.91,SW,227,0.0,3.0,93,0.00,,,0.00,weatherlink.com 1.10,2013-06-03 09:05:00,
2013-06-03 05:20:00,75.5,73.0,29.90,West,279,0.0,2.0,92,0.00,,,0.00,weatherlink.com 1.10,2013-06-03 09:20:00,
2013-06-03 05:35:00,75.3,73.0,29.91,SSW,193,2.0,3.0,93,0.00,,,0.00,weatherlink.com 1.10,2013-06-03 09:35:00,
2013-06-03 05:50:00,75.2,73.0,29.91,SSE,154,1.0,3.0,93,0.00,,,0.00,weatherlink.com 1.10,2013-06-03 09:50:00,
2013-06-03 06:05:00,75.1,73.0,29.91,SSW,208,0.0,0.0,93,0.00,,,0.00,weatherlink.com 1.10,2013-06-03 10:05:00,
2013-06-03 06:20:00,74.9,73.0,29.91,South,191,0.0,0.0,93,0.00,,,0.00,weatherlink.com 1.10,2013-06-03 10:20:00,
2013-06-03 06:35:00,74.9,73.0,29.91,SSE,161,0.0,0.0,94,0.00,,,0.00,weatherlink.com 1.10,2013-06-03 10:35:00,
2013-06-03 06:50:00,75.0,73.0,29.91,SSE,161,0.0,0.0,94,0.00,,,0.00,weatherlink.com 1.10,2013-06-03 10:50:00,
2013-06-03 07:05:00,75.1,73.0,29.91,South,185,0.0,0.0,94,0.00,,,0.00,weatherlink.com 1.10,2013-06-03 11:05:00,
2013-06-03 07:20:00,75.7,74.0,29.92,East,98,1.0,2.0,94,0.00,,,0.00,weatherlink.com 1.10,2013-06-03 11:20:00,
2013-06-03 07:35:00,76.2,74.0,29.92,SW,226,1.0,3.0,93,0.00,,,0.00,weatherlink.com 1.10,2013-06-03 11:35:00,
2013-06-03 07:50:00,76.9,75.0,29.92,ESE,123,1.0,2.0,92,0.00,,,0.00,weatherlink.com 1.10,2013-06-03 11:50:00,
2013-06-03 08:05:00,78.1,75.0,29.92,SE,134,0.0,2.0,91,0.00,,,0.00,weatherlink.com 1.10,2013-06-03 12:05:00,
2013-06-03 08:20:00,78.6,75.0,29.92,WSW,241,0.0,7.0,89,0.00,,,0.00,weatherlink.com 1.10,2013-06-03 12:20:00,
2013-06-03 08:35:00,78.5,75.0,29.93,WNW,296,1.0,4.0,90,0.00,,,0.00,weatherlink.com 1.10,2013-06-03 12:35:00,
2013-06-03 08:50:00,79.4,76.0,29.93,West,275,0.0,4.0,89,0.00,,,0.00,weatherlink.com 1.10,2013-06-03 12:50:00,
2013-06-03 09:05:00,80.6,76.0,29.93,SE,124,3.0,6.0,86,0.00,,,0.00,weatherlink.com 1.10,2013-06-03 13:05:00,
2013-06-03 09:20:00,79.3,76.0,29.93,South,170,4.0,6.0,89,0.00,,,0.00,weatherlink.com 1.10,2013-06-03 13:20:00,
2013-06-03 09:35:00,79.5,77.0,29.92,West,278,3.0,7.0,91,0.01,,,0.01,weatherlink.com 1.10,2013-06-03 13:35:00,
2013-06-03 09:50:00,79.9,77.0,29.92,SSE,149,5.0,8.0,89,0.01,,,0.01,weatherlink.com 1.10,2013-06-03 13:50:00,
2013-06-03 10:05:00,77.9,75.0,29.92,South,188,4.0,12.0,90,0.02,,,0.02,weatherlink.com 1.10,2013-06-03 14:05:00,
2013-06-03 10:20:00,78.2,75.0,29.91,SE,132,5.0,7.0,91,0.02,,,0.02,weatherlink.com 1.10,2013-06-03 14:20:00,
2013-06-03 10:35:00,79.9,77.0,29.91,WSW,258,0.0,12.0,90,0.01,,,0.02,weatherlink.com 1.10,2013-06-03 14:35:00,
2013-06-03 10:50:00,79.6,76.0,29.91,WSW,253,1.0,10.0,89,0.03,,,0.04,weatherlink.com 1.10,2013-06-03 14:50:00,
2013-06-03 11:05:00,79.0,76.0,29.90,WSW,251,3.0,12.0,91,0.02,,,0.04,weatherlink.com 1.10,2013-06-03 15:05:00,
2013-06-03 11:20:00,78.6,76.0,29.89,NW,326,2.0,9.0,91,0.02,,,0.04,weatherlink.com 1.10,2013-06-03 15:20:00,
2013-06-03 11:35:00,77.7,75.0,29.90,WNW,299,7.0,7.0,92,0.02,,,0.04,weatherlink.com 1.10,2013-06-03 15:35:00,
2013-06-03 11:50:00,76.1,74.0,29.94,WNW,288,6.0,11.0,94,0.41,,,0.45,weatherlink.com 1.10,2013-06-03 15:50:00,
2013-06-03 12:05:00,70.6,69.0,29.94,SW,232,2.0,8.0,95,1.20,,,1.24,weatherlink.com 1.10,2013-06-03 16:05:00,
2013-06-03 12:21:00,70.6,70.0,29.94,West,274,1.0,7.0,97,1.24,,,1.28,weatherlink.com 1.10,2013-06-03 16:21:00,
2013-06-03 12:36:00,69.7,69.0,29.93,WNW,293,1.0,1.0,97,1.25,,,1.29,weatherlink.com 1.10,2013-06-03 16:36:00,
2013-06-03 12:51:00,69.7,69.0,29.93,SE,132,0.0,1.0,98,0.84,,,1.32,weatherlink.com 1.10,2013-06-03 16:51:00,
2013-06-03 13:06:00,69.9,69.0,29.93,SW,235,0.0,1.0,98,0.08,,,1.33,weatherlink.com 1.10,2013-06-03 17:06:00,
2013-06-03 13:21:00,70.6,70.0,29.93,SW,233,0.0,0.0,98,0.05,,,1.33,weatherlink.com 1.10,2013-06-03 17:21:00,
2013-06-03 13:36:00,71.0,70.0,29.92,SSE,149,1.0,1.0,98,0.04,,,1.33,weatherlink.com 1.10,2013-06-03 17:36:00,
2013-06-03 13:51:00,71.3,71.0,29.92,NNW,338,0.0,0.0,98,0.01,,,1.33,weatherlink.com 1.10,2013-06-03 17:51:00,
2013-06-03 14:06:00,71.7,71.0,29.90,WSW,239,0.0,2.0,98,0.00,,,1.33,weatherlink.com 1.10,2013-06-03 18:06:00,
2013-06-03 14:21:00,72.4,72.0,29.90,West,281,1.0,1.0,98,0.00,,,1.33,weatherlink.com 1.10,2013-06-03 18:21:00,
2013-06-03 14:36:00,73.0,72.0,29.89,South,180,0.0,2.0,98,0.00,,,1.33,weatherlink.com 1.10,2013-06-03 18:36:00,
2013-06-03 14:51:00,73.6,73.0,29.90,WSW,243,4.0,4.0,97,0.00,,,1.33,weatherlink.com 1.10,2013-06-03 18:51:00,
2013-06-03 15:51:00,75.8,74.0,29.89,WSW,248,1.0,2.0,93,0.00,,,1.33,weatherlink.com 1.10,2013-06-03 19:51:00,
2013-06-03 16:06:00,75.7,74.0,29.89,NW,323,1.0,3.0,93,0.00,,,1.33,weatherlink.com 1.10,2013-06-03 20:06:00,
2013-06-03 16:21:00,75.9,74.0,29.88,ESE,123,1.0,2.0,94,0.00,,,1.33,weatherlink.com 1.10,2013-06-03 20:21:00,
2013-06-03 16:51:00,76.5,74.0,29.89,NNW,343,1.0,3.0,93,0.00,,,1.33,weatherlink.com 1.10,2013-06-03 20:51:00,
2013-06-03 17:06:00,76.3,74.0,29.89,NNE,16,0.0,3.0,92,0.00,,,1.33,weatherlink.com 1.10,2013-06-03 21:06:00,
2013-06-03 17:21:00,76.7,74.0,29.90,ENE,73,0.0,3.0,92,0.00,,,1.33,weatherlink.com 1.10,2013-06-03 21:21:00,
2013-06-03 17:36:00,76.6,74.0,29.91,ENE,64,1.0,4.0,92,0.00,,,1.33,weatherlink.com 1.10,2013-06-03 21:36:00,
2013-06-03 17:51:00,71.4,68.0,29.92,NW,309,1.0,9.0,89,0.10,,,1.43,weatherlink.com 1.10,2013-06-03 21:51:00,
2013-06-03 18:21:00,68.3,67.0,29.89,South,178,0.0,2.0,96,0.30,,,1.63,weatherlink.com 1.10,2013-06-03 22:21:00,
2013-06-03 18:51:00,69.3,69.0,29.87,SW,216,0.0,2.0,97,0.18,,,1.63,weatherlink.com 1.10,2013-06-03 22:51:00,
2013-06-03 19:06:00,70.0,69.0,29.86,SW,219,0.0,2.0,97,0.00,,,1.63,weatherlink.com 1.10,2013-06-03 23:06:00,
2013-06-03 19:21:00,71.1,70.0,29.86,SSW,203,1.0,3.0,97,0.00,,,1.63,weatherlink.com 1.10,2013-06-03 23:21:00,
2013-06-03 19:36:00,70.6,70.0,29.87,WSW,244,0.0,1.0,96,0.00,,,1.63,weatherlink.com 1.10,2013-06-03 23:36:00,
2013-06-03 19:51:00,70.3,69.0,29.88,NW,307,0.0,2.0,97,0.00,,,1.63,weatherlink.com 1.10,2013-06-03 23:51:00,
2013-06-03 20:06:00,70.0,69.0,29.88,SSE,163,1.0,1.0,97,0.00,,,1.63,weatherlink.com 1.10,2013-06-04 00:06:00,
2013-06-03 20:21:00,70.0,69.0,29.89,WSW,258,0.0,1.0,97,0.00,,,1.63,weatherlink.com 1.10,2013-06-04 00:21:00,
2013-06-03 20:36:00,70.0,69.0,29.90,WNW,303,0.0,2.0,98,0.00,,,1.63,weatherlink.com 1.10,2013-06-04 00:36:00,
2013-06-03 20:51:00,70.1,70.0,29.90,SSW,192,0.0,1.0,98,0.00,,,1.63,weatherlink.com 1.10,2013-06-04 00:51:00,
2013-06-03 21:06:00,70.0,69.0,29.90,WNW,298,1.0,2.0,98,0.00,,,1.63,weatherlink.com 1.10,2013-06-04 01:06:00,
2013-06-03 21:51:00,70.1,70.0,29.91,WNW,295,0.0,1.0,98,0.00,,,1.63,weatherlink.com 1.10,2013-06-04 01:51:00,
2013-06-03 22:06:00,70.0,69.0,29.91,WNW,285,0.0,1.0,98,0.00,,,1.63,weatherlink.com 1.10,2013-06-04 02:06:00,
2013-06-03 22:21:00,70.1,70.0,29.93,NW,306,0.0,2.0,98,0.00,,,1.63,weatherlink.com 1.10,2013-06-04 02:21:00,
2013-06-03 22:36:00,70.3,70.0,29.93,South,175,0.0,2.0,98,0.00,,,1.63,weatherlink.com 1.10,2013-06-04 02:36:00,
2013-06-03 22:51:00,70.6,70.0,29.94,SSE,165,1.0,2.0,98,0.01,,,1.64,weatherlink.com 1.10,2013-06-04 02:51:00,
2013-06-03 23:06:00,70.9,70.0,29.94,NW,322,0.0,3.0,98,0.01,,,1.64,weatherlink.com 1.10,2013-06-04 03:06:00,
2013-06-03 23:21:00,71.0,70.0,29.95,NW,323,0.0,0.0,98,0.01,,,1.64,weatherlink.com 1.10,2013-06-04 03:21:00,
2013-06-03 23:36:00,70.9,70.0,29.94,NW,323,0.0,0.0,98,0.01,,,1.64,weatherlink.com 1.10,2013-06-04 03:36:00,
2013-06-03 23:51:00,70.8,70.0,29.94,NW,322,0.0,1.0,98,0.00,,,1.64,weatherlink.com 1.10,2013-06-04 03:51:00,